Disclaimer

Please do not use the information listed here in-flight or in-navigation, as they are not provided to us by the airports but are provided by volunteers, so they might be outdated.

Search


Regions


Airport information page

Radio informations:
SANTIAGO APP - 128.1 MHz

Airport informations:
Latitude: 32° 56' 58.60" S
Longitude: 071° 28' 42.90" W
Elevation: 461 feet - 141 meters
Operating hours: N/A
Operating agency: Military-civil joint use airport
Timezone: UTC-4(-3DT)
Fuel: N/A

Runway information:
05/23 - 5760 x 98 feet< - >1756 x 30 meters

Recent METARs:
SCVM 200500Z 12005KT CAVOK 13/11 Q1013
SCVM 200600Z 12005KT CAVOK 13/11 Q1013
SCVM 200600Z 12005KT CAVOK 13/11 Q1013

Airport on the map: